This demonstration page uses our WeatherBlox Daily Observations layout. Learn more.

Hourly Observations for October 25, 2020

Temp ( °F °C ) Dew Point ( °F °C ) Humidity (%) Winds ( mph kmh ) Pressure ( in mb ) Visibility ( mi km ) Precip ( " mm )
12:54 am 00:54 Cloudy 34 1.1 25 -3.9 70 70 NE 12 19 30.26 1025 10 16.0934 0 0
1:54 am 01:54 Cloudy 34 1.1 26 -3.3 73 73 NNE 9 15 30.26 1025 10 16.0934 0 0
2:54 am 02:54 Cloudy 33 0.6 25 -3.9 72 72 NNE 13 20 30.25 1025 10 16.0934 0 0
3:54 am 03:54 Cloudy 33 0.6 24 -4.4 70 70 NNE 12 19 30.26 1025 10 16.0934 0 0
4:54 am 04:54 Cloudy 32 0 24 -4.4 73 73 NNE 13 20 30.25 1024 10 16.0934 0 0
5:54 am 05:54 Cloudy 32 0 24 -4.4 73 73 N 10 17 30.27 1025 10 16.0934 0 0
6:54 am 06:54 Cloudy 31 -0.6 24 -4.4 76 76 NNE 12 19 30.29 1026 10 16.0934 0 0
7:28 am 07:28 Cloudy 30 -1.1 24 -4.4 79 79 N 12 19 30.33 1027 10 16.0934 0 0
7:54 am 07:54 Cloudy 30 -1.1 24 -4.4 79 79 N 14 22 30.29 1026 10 16.0934 0 0
8:52 am 08:52 Cloudy 30 -1 25 -4 80 80 NNE 14 22 30.33 1027 8 12.87472 0 0
8:54 am 08:54 Cloudy 30 -1.1 25 -3.9 82 82 NNE 13 20 30.3 1026 8 12.87472 0 0
9:54 am 09:54 Cloudy with Mist and Fog 30 -1.1 26 -3.3 85 85 N 13 20 30.32 1027 5 8.0467 0 0
10:41 am 10:41 Cloudy with Mist and Fog 30 -1.1 26 -3.3 85 85 N 14 22 30.37 1028 2 3.21868 0 0
10:54 am 10:54 Cloudy with Mist and Fog 30 -1.1 26 -3.3 85 85 N 13 20 30.34 1027 2 3.21868 0 0
11:30 am 11:30 Cloudy with Mist and Fog 30 -1.1 26 -3.3 85 85 N 15 24 30.36 1028 3 4.82802 0 0
11:54 am 11:54 Cloudy with Mist and Fog 30 -1.1 26 -3.3 85 85 N 16 26 30.33 1027 3 4.82802 0 0
12:31 pm 12:31 Cloudy 30 -1.1 25 -3.9 82 82 N 16 26 30.38 1029 8 12.87472 0 0
12:54 pm 12:54 Cloudy with Haze 30 -1.1 25 -3.9 82 82 N 16 26 30.34 1028 5 8.0467 0 0
1:54 pm 13:54 Cloudy 31 -0.6 24 -4.4 76 76 N 16 26 30.33 1027 10 16.0934 0 0
2:43 pm 14:43 Cloudy 31 -0.6 23 -5 72 72 N 17 28 30.33 1027 10 16.0934 0 0
2:54 pm 14:54 Cloudy 31 -0.6 23 -5 72 72 NNE 16 26 30.31 1026 10 16.0934 0 0
3:54 pm 15:54 Cloudy 31 -0.6 22 -5.6 69 69 N 21 33 30.3 1026 10 16.0934 0 0
4:51 pm 16:51 Cloudy 30 -1 21 -6 69 69 N 17 28 30.35 1028 10 16.0934 0 0
4:54 pm 16:54 Cloudy 30 -1.1 22 -5.6 72 72 N 20 31 30.32 1027 10 16.0934 0 0
5:04 pm 17:04 Cloudy 30 -1.1 21 -6.1 69 69 N 20 31 30.35 1028 10 16.0934 0 0
5:54 pm 17:54 Cloudy 29 -1.7 21 -6.1 72 72 N 21 33 30.35 1028 10 16.0934 0 0
6:16 pm 18:16 Cloudy with Light Snow 28 -2.2 22 -5.6 78 78 N 17 28 30.38 1029 1.75 2.816345 0.001 0.001
6:33 pm 18:33 Cloudy with Light Snow 28 -2.2 23 -5 81 81 N 17 28 30.38 1029 2.5 4.02335 0.001 0.001
6:47 pm 18:47 Cloudy with Light Snow 28 -2.2 23 -5 81 81 N 15 24 30.39 1029 2.5 4.02335 0.001 0.001
6:54 pm 18:54 Cloudy with Light Snow 27 -2.8 23 -5 85 85 N 14 22 30.36 1028 2.5 4.02335 0.01 0.254
7:02 pm 19:02 Cloudy with Light Snow 28 -2.2 23 -5 81 81 N 17 28 30.39 1029 3 4.82802 0.001 0.001
7:54 pm 19:54 Cloudy with Light Snow 28 -2.2 23 -5 81 81 N 15 24 30.4 1030 4 6.43736 0.001 0.001
8:37 pm 20:37 Cloudy with Light Snow 27 -2.8 23 -5 85 85 N 17 28 30.43 1031 2 3.21868 0.001 0.001
8:44 pm 20:44 Cloudy with Light Snow 27 -2.8 23 -5 85 85 N 14 22 30.42 1030 1.25 2.011675 0.001 0.001
8:54 pm 20:54 Windy with Snow Likely 27 -2.8 23 -5 85 85 N 20 31 30.41 1030 1.25 2.011675 0.01 0.254
9:51 pm 21:51 Cloudy with Light Snow 27 -3 21 -6 80 80 N 18 30 30.46 1031 1.25 2.011675 0.02 0.508
9:54 pm 21:54 Cloudy with Light Snow 26 -3.3 22 -5.6 84 84 N 18 30 30.43 1031 1.25 2.011675 0.02 0.508
10:02 pm 22:02 Cloudy with Light Snow 26 -3.3 22 -5.6 84 84 N 18 30 30.47 1032 1.75 2.816345 0.001 0.001
10:05 pm 22:05 Cloudy with Light Snow 26 -3.3 22 -5.6 84 84 N 16 26 30.47 1032 2 3.21868 0.001 0.001
10:16 pm 22:16 Cloudy with Light Snow 26 -3.3 21 -6.1 81 81 N 17 28 30.47 1032 4 6.43736 0.001 0.001
10:54 pm 22:54 Windy with Snow Likely 26 -3.3 21 -6.1 81 81 N 21 33 30.45 1031 6 9.65604 0.01 0.254
11:54 pm 23:54 Cloudy with Light Snow 25 -3.9 20 -6.7 81 81 N 17 28 30.45 1031 5 8.0467 0.001 0.001

Powered by AerisWeather